Twin Bridges, CA

10:45 AM PDT on August 28, 2016 (GMT -0700)
Lake Tahoe

Weather History for KTVL - July, 2012

Change the Weather History Date:

Monday, July 23, 2012

  Actual Average Record
Temperature  
Mean Temperature 63 °F 62 °F  
Max Temperature 72 °F 82 °F 91 °F (1988)
Min Temperature 53 °F 42 °F 30 °F (1992)
Degree Days  
Heating Degree Days 2 4  
Month to date heating degree days 72 110  
Since 1 June heating degree days 384 420  
Since 1 July heating degree days 72 110  
Cooling Degree Days 0 1  
Month to date cooling degree days 5 11  
Year to date cooling degree days 5 12  
Since 1 June cooling degree days 5 12  
Growing Degree Days 11 (Base 50)    
Moisture  
Dew Point 55 °F    
Average Humidity 76    
Maximum Humidity 93    
Minimum Humidity 59    
Precipitation  
Precipitation 0.40 in - 0.59 in (1986)
Month to date precipitation 0.40  
Year to date precipitation 10.72  
Sea Level Pressure  
Sea Level Pressure 30.14 in    
Wind  
Wind Speed 1 mph (NE)    
Max Wind Speed 9 mph    
Max Gust Speed 13 mph    
Visibility 7 miles    
Events Fog , Rain    
T = Trace of Precipitation, MM = Missing Value Source: NWS Daily Summary

Daily Weather History Graph

Daily Weather History Graph

Search for Another Location

Airport or City:

Trip Planner

Search our weather history database for the weather conditions in past years. The results will help you decide how hot, cold, wet, or windy it might be!

Date:

Astronomy

Jul. 23, 2012 Rise Set
Actual Time 5:53 AM PDT 8:18 PM PDT
Civil Twilight 5:23 AM PDT 8:49 PM PDT
Nautical Twilight 4:45 AM PDT 9:26 PM PDT
Astronomical Twilight 4:03 AM PDT 10:08 PM PDT
Moon 10:46 AM PDT (7/23) 10:40 PM PDT (7/23)
Length of Visible Light 15h 25m
Length of Day
14h 25m
Waxing Crescent, 23% of the Moon is Illuminated
Jul 23
Waxing Crescent
Jul 26
First Quarter
Aug 1
Full
Aug 9
Last Quarter
Aug 17
New

Hourly Weather History & Observations

Time (PDT) Temp. Dew Point Humidity Pressure Visibility Wind Dir Wind Speed Gust Speed Precip Events Conditions
12:53 AM 57.9 °F 48.0 °F 70% 30.03 in 10.0 mi Calm Calm - N/A   Mostly Cloudy
1:53 AM 57.9 °F 48.0 °F 70% 30.01 in 10.0 mi SSW 3.5 mph - N/A   Mostly Cloudy
2:53 AM 55.9 °F 46.9 °F 72% 30.03 in 10.0 mi NNE 4.6 mph - N/A   Scattered Clouds
3:53 AM 57.2 °F 46.4 °F 67% 30.23 in 10.0 mi Calm Calm - N/A   Scattered Clouds
4:53 AM 55.9 °F 48.0 °F 75% 30.03 in 10.0 mi Calm Calm - 0.00 in   Partly Cloudy
5:53 AM 54.0 °F 48.0 °F 80% 30.06 in 9.0 mi Calm Calm - N/A   Partly Cloudy
6:27 AM 55.4 °F 51.8 °F 88% 30.24 in 2.5 mi North 3.5 mph - 0.04 in Rain Heavy Rain
6:38 AM 55.4 °F 51.8 °F 88% 30.25 in 5.0 mi SE 3.5 mph - 0.05 in Rain Light Rain
6:53 AM 55.0 °F 53.1 °F 93% 30.07 in 6.0 mi Calm Calm - 0.05 in   Partly Cloudy
7:53 AM 57.9 °F 55.9 °F 93% 30.07 in 6.0 mi SE 3.5 mph - N/A   Overcast
8:53 AM 62.1 °F 54.0 °F 75% 30.08 in 10.0 mi Calm Calm - N/A   Mostly Cloudy
9:53 AM 68.0 °F 53.1 °F 59% 30.04 in 10.0 mi NE 3.5 mph - N/A   Mostly Cloudy
10:53 AM 66.9 °F 53.1 °F 61% 30.06 in 10.0 mi Variable 5.8 mph - 0.00 in   Mostly Cloudy
11:53 AM 68.0 °F 53.1 °F 59% 30.06 in 10.0 mi Calm Calm - 0.00 in   Mostly Cloudy
11:58 AM 66.2 °F 53.6 °F 64% 30.23 in 2.0 mi Calm Calm - 0.03 in Rain Rain
12:05 PM 62.6 °F 57.2 °F 82% 30.23 in 1.2 mi North 3.5 mph - 0.05 in Rain Rain
12:09 PM 62.6 °F 59.0 °F 88% 30.23 in 3.0 mi Variable 3.5 mph - 0.05 in Rain Light Rain
12:18 PM 64.4 °F 57.2 °F 77% 30.24 in 9.0 mi North 3.5 mph - 0.05 in   Mostly Cloudy
12:34 PM 62.6 °F 55.4 °F 77% 30.23 in 2.5 mi Calm Calm - 0.08 in Rain Rain
12:43 PM 64.4 °F 59.0 °F 83% 30.23 in 5.0 mi Calm Calm - 0.08 in Rain Light Rain
12:53 PM 64.0 °F 57.9 °F 80% 30.07 in 8.0 mi Calm Calm - 0.09 in   Overcast
1:30 PM 64.4 °F 57.2 °F 77% 30.23 in 2.5 mi Calm Calm - 0.03 in Rain Rain
1:37 PM 62.6 °F 57.2 °F 82% 30.22 in 1.5 mi Calm Calm - 0.05 in Rain Light Rain
1:41 PM 62.6 °F 59.0 °F 88% 30.22 in 4.0 mi Calm Calm - 0.05 in Rain Light Rain
1:48 PM 64.4 °F 60.8 °F 88% 30.22 in 10.0 mi Calm Calm - 0.05 in Rain Light Rain
1:53 PM 66.0 °F 59.0 °F 78% 30.06 in 10.0 mi Calm Calm - 0.05 in Rain Light Rain
2:23 PM 64.4 °F 57.2 °F 77% 30.22 in 1.2 mi Calm Calm - 0.06 in Rain Light Rain
2:31 PM 60.8 °F 59.0 °F 94% 30.22 in 0.5 mi Calm Calm - 0.16 in Fog , Rain Heavy Rain
2:38 PM 62.6 °F 59.0 °F 88% 30.22 in 2.5 mi Calm Calm - 0.16 in Rain Light Rain
2:40 PM 62.6 °F 59.0 °F 88% 30.21 in 6.0 mi Calm Calm - 0.16 in Rain Light Rain
2:50 PM 62.6 °F 59.0 °F 88% 30.21 in 3.0 mi East 4.6 mph - 0.17 in Rain Light Rain
3:32 PM 62.6 °F 60.8 °F 94% 30.21 in 3.0 mi Calm Calm - 0.02 in Rain Light Rain
3:43 PM 64.4 °F 59.0 °F 83% 30.22 in 10.0 mi Calm Calm - 0.02 in   Mostly Cloudy
3:53 PM 63.0 °F 59.0 °F 87% 30.05 in 4.0 mi North 3.5 mph - 0.03 in Rain Rain
4:07 PM 62.6 °F 59.0 °F 88% 30.21 in 10.0 mi Calm Calm - 0.01 in   Mostly Cloudy
4:53 PM 66.0 °F 59.0 °F 78% 30.05 in 10.0 mi Calm Calm - 0.01 in   Partly Cloudy
5:53 PM 64.0 °F 57.9 °F 80% 30.05 in 10.0 mi Calm Calm - N/A   Scattered Clouds
6:53 PM 64.9 °F 57.0 °F 75% 30.04 in 10.0 mi NNE 4.6 mph - N/A   Mostly Cloudy
7:53 PM 62.1 °F 57.9 °F 86% 30.05 in 10.0 mi Calm Calm - N/A   Partly Cloudy
8:53 PM 59.0 °F 55.9 °F 90% 30.06 in 10.0 mi Calm Calm - N/A   Scattered Clouds
9:53 PM 57.0 °F 55.0 °F 93% 30.05 in 10.0 mi Calm Calm - N/A   Partly Cloudy
10:53 PM 57.0 °F 55.0 °F 93% 30.06 in 9.0 mi South 3.5 mph - N/A   Partly Cloudy
11:53 PM 55.0 °F 53.1 °F 93% 30.06 in 8.0 mi Calm Calm - N/A   Partly Cloudy